Dewpoint
-12 -8 -5 -3 -2 4 3 7 8 8 7 9 11 12 15 13 13 13 14 14 15 15 14 15 15 15 14 14 15 15 15 15 15 14 15 15 15 15 15 16 15 15 15 15
-7 -7 -7 -5 -3 -0 4 4 7 4 7 9 11 12 14 14 13 13 13 13 14 14 15 14 15 15 15 14 14 14 14 14 14 14 14 15 16 17 16 16 15 15 15 15
-9 -9 -7 -2 -1 -2 -0 -2 -0 5 9 10 12 13 13 13 13 13 13 13 13 13 14 13 13 13 14 14 14 13 13 14 14 14 15 16 17 15 13 11 12 13 11 13
-11 -12 -7 -3 0 -1 1 -2 -2 6 9 11 9 12 13 12 13 12 12 12 13 13 12 12 13 13 13 13 13 13 13 13 14 14 14 14 13 10 9 6 7 9 10 13
-8 -9 -6 -1 -2 -2 -2 -2 -0 5 8 9 12 10 9 12 13 12 11 11 12 12 12 12 13 13 13 13 13 13 13 13 13 14 13 13 12 11 12 10 10 9 12 12
-7 -11 -8 -7 -4 -3 -4 -6 -2 2 6 9 9 10 8 14 12 11 11 11 12 12 12 12 12 12 13 13 13 13 13 10 11 13 13 12 9 10 10 8 4 5 10 10
-9 -10 -9 -7 -5 -5 -6 -3 0 2 8 8 7 11 8 8 10 9 10 11 12 12 12 12 12 12 13 13 14 12 12 6 7 9 8 6 4 5 8 5 -2 4 8 8
-6 -8 -8 -8 -6 -4 -4 -3 1 1 4 7 8 12 9 5 5 8 9 10 11 12 12 12 12 12 13 13 13 11 8 4 4 5 2 0 4 -0 -1 -2 -5 2 7 6
-5 -6 -8 -8 -7 -7 -5 -4 -5 -2 -0 1 4 2 0 1 3 7 8 9 10 11 12 13 12 12 13 13 13 9 6 2 1 1 0 1 2 3 -2 -5 -9 -2 -0 -2
-7 -6 -8 -9 -8 -8 -6 -6 -2 -2 1 3 2 1 3 2 4 5 8 9 9 10 12 13 13 12 13 12 12 12 8 -0 -1 2 1 2 2 2 1 -3 -6 -7 -5 0
-8 -8 -8 -7 -7 -7 -4 -4 -3 -2 -1 1 1 2 0 0 3 4 7 8 8 9 11 12 12 11 12 12 12 13 11 8 1 1 3 3 5 9 8 1 -5 -4 -2 -0
-9 -8 -6 -7 -8 -8 -7 -5 -4 -2 -2 -0 -0 -0 -3 1 1 6 5 7 7 7 8 9 10 11 12 12 12 12 12 10 7 4 8 7 7 9 13 4 -2 -3 -4 -4
-7 -7 -6 -7 -8 -6 -6 -4 -4 -3 -2 2 1 0 -1 2 5 7 6 6 6 6 6 9 10 10 11 11 12 12 12 12 9 9 11 13 12 12 13 9 3 -2 -4 -4
-0 -7 -7 -5 -7 -7 -4 -3 -3 -4 -0 0 1 -2 -1 4 6 7 7 6 5 6 6 8 9 9 9 10 11 12 12 12 12 10 11 13 14 13 13 12 4 3 -1 -1
-8 -5 -7 -7 -8 -5 -5 -3 -1 -2 -3 -1 -2 -0 -1 3 5 5 4 7 6 6 6 6 7 6 8 9 10 11 12 12 12 12 10 10 12 14 14 13 6 3 2 1
-4 -5 -6 -6 -8 -6 -6 -5 -1 -1 -2 -2 -3 -0 -2 0 3 5 4 6 7 6 5 4 5 6 6 6 6 9 11 12 13 13 12 12 13 14 14 12 12 8 3 3
3 -5 -4 -4 -6 -6 -4 -7 -5 -3 -2 -2 0 -1 -1 3 4 4 4 5 5 4 5 5 4 4 3 3 4 6 8 11 12 13 13 14 15 15 15 12 12 12 5 -2
9 -1 -3 -4 -2 -0 -6 -2 -6 -4 4 3 1 -0 2 2 1 2 2 2 2 3 5 4 2 2 3 4 5 6 7 9 11 11 13 15 16 15 15 11 10 11 8 2
8 1 0 -0 -1 -1 5 6 5 4 5 5 6 5 4 1 2 3 3 3 3 3 3 1 3 4 -2 -3 1 4 6 10 12 12 13 14 15 16 15 11 8 11 11 8
6 7 6 4 1 5 5 7 7 7 6 6 6 6 6 4 4 6 4 4 4 4 5 4 -2 -3 -3 -3 -2 -2 1 8 9 12 14 14 15 16 15 13 9 12 12 12
10 10 10 8 7 7 8 8 8 5 5 7 6 5 5 7 6 6 5 5 4 3 2 2 3 2 3 1 2 2 2 2 8 12 15 16 16 16 15 12 12 13 12 12
9 12 13 11 10 9 7 8 6 7 6 7 6 6 5 6 7 5 2 0 0 0 -0 -1 -1 -2 -3 -3 2 5 4 9 6 12 15 16 16 16 14 14 13 12 11 10
11 11 12 10 10 8 7 7 7 6 5 5 3 4 5 6 6 4 3 3 3 2 2 2 0 -2 -3 -3 3 -3 10 9 13 15 15 15 15 14 13 13 12 10 9 8
10 9 10 10 8 8 4 4 5 4 4 4 4 4 4 5 6 7 7 5 3 3 3 4 4 4 5 5 10 12 14 14 14 14 15 14 14 12 11 8 8 9 8 7
9 9 9 9 8 5 2 2 2 1 0 1 1 2 3 4 6 7 7 9 9 10 7 5 4 4 7 10 13 13 14 14 12 11 13 12 13 13 12 10 9 7 7 6
7 10 9 9 6 7 4 3 2 2 2 1 0 0 1 1 2 2 4 6 9 9 8 8 6 7 6 6 9 12 12 11 10 8 8 9 11 10 9 8 9 7 7 4
Wind_Speed
8 4 7 10 9 7 7 8 17 1 3 3 5 5 15 23 21 22 25 28 32 37 34 32 30 30 26 24 26 24 24 20 20 20 21 20 19 18 18 20 19 17 17 17
3 9 9 8 6 8 9 7 10 2 4 4 2 3 10 20 24 28 27 28 30 35 33 34 34 34 32 26 25 24 22 21 21 22 20 19 17 18 16 15 16 17 15 14
6 4 10 8 5 7 6 9 6 14 6 3 6 2 8 12 17 21 25 28 30 36 37 37 35 35 34 30 26 24 23 22 23 21 21 20 19 18 16 16 15 13 10 9
6 6 11 9 11 8 7 8 7 9 10 6 5 5 8 12 17 15 28 29 37 38 38 38 37 38 37 32 28 25 23 23 24 22 22 22 18 15 12 11 11 11 11 11
7 5 8 5 8 9 8 8 11 8 8 5 1 2 6 14 11 22 28 32 37 42 41 40 40 37 35 33 30 27 25 25 26 25 23 21 19 16 14 13 13 14 14 12
10 5 8 11 5 9 10 7 6 4 4 1 8 9 5 7 24 25 25 33 38 39 43 40 38 37 37 34 31 29 28 28 28 27 25 23 20 17 15 12 12 12 13 11
3 7 3 4 5 1 6 7 2 2 2 6 3 4 12 10 16 24 23 38 39 44 44 43 42 41 40 39 34 33 32 33 31 30 28 25 21 18 15 13 12 12 12 11
7 6 8 4 7 8 6 9 6 6 5 5 4 8 10 21 18 20 20 34 32 38 43 47 46 44 41 39 37 37 38 37 36 33 31 27 23 19 15 14 15 13 13 10
7 7 4 4 5 9 4 4 6 7 2 2 5 8 9 6 7 12 25 28 37 42 48 48 48 47 45 42 42 42 41 40 39 37 33 30 26 22 17 15 16 15 13 12
8 1 8 6 2 3 9 9 4 3 5 5 4 4 6 5 11 9 8 26 36 42 40 46 48 50 49 45 45 44 44 43 42 40 39 35 32 26 20 18 17 15 13 13
7 5 6 6 12 14 3 3 5 6 5 7 4 6 8 10 11 11 14 32 37 42 42 45 49 50 51 50 50 48 46 46 46 45 43 41 36 31 26 22 20 18 16 15
10 10 10 12 4 6 11 11 9 7 6 2 4 7 5 12 6 12 19 28 30 37 42 45 45 47 50 52 53 54 50 49 49 48 47 44 40 35 32 28 23 19 18 17
7 5 10 7 6 2 5 5 6 5 4 8 6 6 2 5 8 15 21 23 28 32 36 40 40 43 45 48 52 55 55 52 51 51 49 47 44 40 37 30 26 20 20 19
17 6 12 18 17 6 5 7 7 7 5 6 7 7 7 9 9 9 18 21 27 34 37 38 39 40 40 42 46 49 54 55 55 53 51 48 46 45 42 34 31 23 22 21
4 13 11 22 11 8 8 8 10 8 7 8 10 11 11 12 13 18 26 24 25 30 33 37 40 40 38 38 41 45 47 50 54 55 54 51 49 49 46 41 33 26 24 23
4 7 7 20 16 12 10 8 10 9 3 7 3 9 10 8 9 11 24 28 30 34 39 38 36 37 36 35 37 40 42 43 45 49 54 53 50 51 51 44 33 30 24 23
3 2 3 12 7 7 7 20 10 7 6 10 8 13 7 6 9 16 23 29 34 38 40 37 35 32 28 27 30 33 35 37 40 41 44 47 47 47 47 28 22 33 24 21
3 1 4 14 4 6 13 6 14 16 5 7 4 7 9 8 24 21 24 34 39 40 34 33 27 25 23 20 20 21 24 29 32 35 37 39 41 39 43 27 28 34 31 28
3 2 3 5 6 4 1 3 5 8 6 2 5 2 4 7 4 2 6 18 22 28 26 22 15 7 5 3 8 12 16 21 25 29 31 33 35 36 40 34 32 34 38 32
6 6 4 3 7 7 4 3 3 4 1 6 4 6 7 11 5 3 6 2 7 10 13 15 15 11 6 3 3 7 12 18 20 24 25 25 26 32 39 31 26 35 39 36
6 5 2 1 1 3 4 9 7 5 3 6 3 7 12 6 9 19 26 26 23 21 17 10 7 4 3 3 6 8 10 13 13 16 21 23 20 27 31 30 28 30 29 30
4 2 3 3 4 0 18 9 5 6 18 23 27 31 35 30 31 34 31 30 27 24 20 16 12 8 9 11 14 13 20 18 10 11 13 15 19 25 21 19 21 25 26 23
7 5 4 1 2 8 16 5 14 19 29 30 34 28 26 27 24 24 24 22 21 19 16 15 14 14 14 18 17 16 17 12 9 7 9 13 17 17 16 18 16 12 10 10
3 4 5 3 6 8 19 17 21 28 32 30 28 29 23 22 20 21 20 16 14 13 11 13 14 19 16 17 15 10 10 7 7 5 9 12 14 15 15 18 15 9 6 19
2 2 8 6 4 3 17 18 23 29 33 32 30 25 23 17 22 20 16 14 14 13 12 11 13 15 14 14 11 7 6 7 8 10 10 9 17 20 20 18 10 12 23 20
5 3 1 5 13 12 15 13 21 28 31 29 27 27 26 21 18 15 17 17 13 12 10 11 12 12 13 12 8 4 2 3 7 13 20 17 20 20 17 15 17 14 17 17
Wind_Direction
181 141 181 187 184 180 151 170 186 177 25 37 181 159 178 186 192 197 196 200 205 213 216 220 220 219 219 215 217 222 219 219 222 229 231 235 244 248 256 252 253 251 252 260
109 207 195 176 174 166 165 154 206 327 142 141 110 313 196 198 201 200 204 209 208 214 219 221 224 223 223 218 217 219 220 220 225 231 237 240 246 249 252 244 242 245 254 255
168 232 146 142 173 134 166 171 162 219 145 64 121 316 194 215 217 217 224 221 218 218 218 222 222 224 224 222 219 218 219 220 226 230 230 235 238 242 241 243 242 243 248 237
216 218 164 156 175 148 157 207 161 141 145 200 169 241 223 205 212 213 221 217 222 222 222 221 222 224 225 224 222 222 221 224 226 225 226 233 239 246 238 234 234 232 231 236
236 191 164 166 185 164 209 150 156 160 170 116 209 79 262 176 218 225 218 212 218 223 223 223 223 223 224 223 222 222 222 225 225 224 226 233 236 236 232 236 240 230 231 235
220 242 163 185 184 175 141 101 62 63 98 114 218 185 254 188 213 228 215 216 214 217 225 226 228 228 224 222 219 221 223 222 221 223 225 231 233 232 230 237 232 227 227 237
278 248 212 150 135 33 85 78 2 32 70 209 186 151 232 218 222 222 205 208 209 216 220 223 223 223 223 219 217 215 217 218 217 218 221 223 225 232 238 239 239 235 231 240
174 235 187 179 166 166 178 150 156 186 180 225 95 207 243 233 235 239 225 214 207 208 217 222 223 220 220 218 216 215 213 214 215 217 217 218 222 227 233 239 235 234 239 247
165 251 297 184 148 144 187 154 187 113 38 91 200 283 305 233 252 210 217 202 206 208 215 218 221 222 222 219 218 217 215 215 216 218 218 218 221 225 231 236 230 226 232 234
214 257 226 245 156 217 167 167 98 3 144 219 260 265 230 255 246 212 205 202 209 213 208 214 218 221 222 224 223 221 219 218 219 219 220 221 221 221 226 233 231 225 222 231
160 137 265 146 209 211 125 156 61 123 136 172 201 257 215 219 220 214 214 212 208 210 209 214 220 224 225 226 225 225 223 223 224 224 224 224 226 225 223 230 231 229 229 233
210 197 222 218 229 204 194 182 164 191 228 210 179 253 224 215 208 224 226 218 209 215 217 221 224 226 227 227 227 227 228 228 230 230 229 229 227 226 226 227 230 226 230 233
182 220 224 282 295 221 189 171 127 118 94 189 185 256 287 250 246 233 223 202 206 214 220 222 223 226 230 231 229 231 231 232 234 234 233 232 230 227 227 226 228 227 228 227
200 177 196 224 229 178 193 176 178 154 147 173 210 235 252 236 226 225 224 211 209 213 218 220 224 227 230 234 236 235 236 236 236 237 238 235 232 230 230 225 226 230 232 226
134 197 199 224 193 179 205 180 172 178 187 167 234 199 228 212 209 209 215 211 206 212 216 223 225 229 233 237 241 242 242 241 240 240 241 239 236 231 229 223 224 232 231 228
342 261 196 229 208 194 224 212 178 196 134 245 250 225 222 221 183 159 206 207 209 213 217 222 230 235 240 244 248 249 249 247 246 245 247 245 239 232 231 221 231 223 222 228
286 191 110 240 180 177 233 232 209 191 182 173 185 223 169 187 202 213 200 205 212 217 220 221 226 233 239 247 255 257 260 255 252 255 252 251 245 236 227 221 247 241 231 227
245 178 167 242 92 169 235 190 215 213 189 206 221 198 200 192 211 222 218 210 213 221 220 217 219 230 238 252 267 272 271 266 261 260 257 251 247 243 225 222 237 237 238 239
194 201 284 181 164 240 64 55 142 157 220 269 221 218 236 145 139 36 308 256 244 230 220 214 215 200 168 244 273 279 282 272 264 264 261 256 250 241 219 212 246 231 235 241
331 264 133 316 147 184 219 312 18 268 112 6 294 185 168 144 115 263 55 159 179 162 158 141 144 108 247 232 301 302 294 277 279 273 271 268 259 247 223 240 234 231 234 239
281 321 116 290 197 297 12 319 328 140 211 337 23 125 113 81 112 114 104 98 105 116 122 129 153 162 222 238 288 305 316 313 299 294 277 262 252 237 233 240 227 224 230 242
214 276 212 224 46 190 355 344 174 146 119 92 76 80 85 86 89 90 86 82 82 81 75 68 52 28 1 340 308 276 291 276 274 284 265 251 240 231 229 228 226 229 235 262
183 178 171 162 76 312 339 341 111 111 103 97 86 76 68 65 59 64 62 59 56 56 49 38 23 1 343 319 304 307 271 262 270 255 237 218 215 205 201 196 194 195 207 252
43 142 117 102 341 338 18 57 85 89 86 86 83 72 60 52 39 38 35 28 13 6 356 0 355 344 342 337 319 305 263 252 206 183 192 189 191 181 176 167 170 190 259 275
331 135 146 76 189 56 52 73 87 89 83 74 70 68 66 50 46 41 33 25 32 30 20 7 10 357 4 6 337 305 272 212 162 146 170 213 226 212 206 207 210 276 243 246
352 322 153 184 187 142 125 97 89 85 83 80 77 72 70 70 60 45 42 30 21 18 10 357 355 11 8 6 354 327 258 186 228 246 249 234 234 225 225 218 261 238 246 250
Height
1464 1475 1482 1478 1474 1473 1481 1490 1491 1492 1492 1499 1503 1506 1505 1507 1511 1512 1514 1515 1517 1519 1522 1528 1532 1535 1539 1542 1545 1548 1551 1554 1557 1558 1559 1561 1562 1564 1565 1565 1566 1567 1568 1569
1468 1474 1468 1467 1470 1474 1480 1491 1495 1492 1492 1501 1507 1508 1506 1507 1502 1506 1510 1512 1514 1517 1520 1524 1528 1532 1535 1538 1541 1545 1548 1552 1553 1555 1557 1559 1560 1561 1562 1563 1563 1564 1565 1566
1471 1463 1463 1467 1473 1478 1482 1488 1494 1493 1496 1498 1505 1513 1511 1506 1507 1508 1508 1509 1512 1514 1516 1519 1523 1526 1531 1534 1537 1540 1544 1547 1549 1552 1554 1555 1557 1558 1558 1559 1559 1561 1562 1563
1463 1455 1459 1467 1473 1473 1491 1473 1479 1490 1498 1518 1497 1530 1511 1501 1502 1501 1500 1503 1504 1507 1511 1515 1518 1521 1525 1529 1533 1537 1540 1542 1545 1548 1550 1552 1553 1555 1555 1556 1557 1558 1559 1560
1460 1454 1458 1463 1463 1463 1472 1466 1477 1485 1499 1502 1506 1519 1498 1496 1504 1491 1489 1494 1497 1500 1504 1508 1512 1517 1520 1525 1529 1534 1537 1538 1541 1544 1547 1549 1550 1552 1553 1554 1555 1555 1556 1557
1452 1446 1449 1452 1453 1454 1459 1473 1488 1498 1504 1526 1502 1506 1503 1501 1479 1469 1481 1485 1488 1493 1497 1503 1508 1513 1516 1521 1525 1529 1532 1534 1537 1540 1543 1545 1547 1549 1550 1551 1552 1553 1554 1555
1453 1449 1443 1442 1454 1454 1460 1480 1513 1518 1527 1528 1497 1508 1483 1468 1460 1457 1464 1469 1476 1483 1489 1495 1500 1505 1510 1515 1520 1523 1526 1528 1531 1534 1537 1540 1543 1545 1546 1548 1549 1550 1551 1552
1470 1470 1444 1440 1447 1459 1464 1472 1507 1520 1528 1510 1499 1508 1475 1448 1451 1456 1461 1464 1471 1476 1480 1485 1491 1497 1503 1509 1513 1517 1519 1522 1525 1529 1532 1536 1539 1541 1544 1545 1547 1548 1549 1550
1467 1462 1436 1434 1437 1442 1462 1476 1466 1499 1505 1511 1505 1482 1457 1447 1449 1449 1450 1457 1459 1464 1469 1475 1484 1490 1496 1502 1505 1509 1513 1516 1520 1524 1528 1531 1535 1538 1540 1543 1544 1545 1546 1547
1441 1458 1438 1433 1434 1436 1444 1452 1478 1495 1512 1515 1503 1488 1480 1455 1447 1444 1447 1447 1449 1455 1463 1467 1474 1482 1488 1493 1498 1504 1507 1510 1513 1518 1522 1525 1528 1532 1536 1539 1541 1542 1543 1544
1434 1446 1446 1435 1436 1441 1451 1459 1468 1476 1490 1505 1509 1496 1450 1443 1437 1436 1434 1434 1438 1445 1453 1458 1464 1470 1477 1484 1491 1495 1499 1503 1507 1510 1514 1518 1523 1528 1530 1533 1536 1537 1539 1540
1426 1436 1448 1442 1425 1423 1428 1443 1450 1467 1487 1492 1489 1479 1430 1427 1429 1428 1426 1429 1434 1439 1445 1450 1456 1463 1469 1476 1483 1485 1491 1495 1498 1502 1508 1511 1517 1521 1526 1527 1531 1533 1534 1535
1418 1437 1446 1445 1435 1425 1427 1433 1441 1452 1462 1481 1482 1470 1426 1426 1426 1424 1425 1423 1429 1436 1442 1448 1454 1458 1463 1468 1473 1477 1482 1486 1490 1495 1500 1505 1511 1515 1517 1522 1525 1527 1528 1530
1401 1421 1420 1430 1426 1424 1430 1428 1434 1438 1466 1467 1462 1444 1430 1425 1423 1420 1419 1420 1424 1430 1436 1442 1448 1451 1456 1459 1463 1467 1472 1477 1482 1487 1492 1497 1502 1506 1507 1513 1517 1520 1524 1526
1396 1405 1407 1397 1409 1415 1415 1418 1426 1433 1430 1440 1431 1441 1424 1415 1414 1411 1411 1417 1423 1428 1433 1437 1440 1444 1449 1454 1457 1460 1464 1470 1474 1478 1481 1485 1489 1495 1498 1502 1513 1514 1519 1522
1400 1406 1404 1397 1398 1406 1409 1408 1412 1415 1418 1425 1424 1427 1404 1400 1405 1407 1407 1412 1416 1421 1425 1429 1434 1440 1444 1448 1451 1454 1459 1464 1467 1470 1472 1478 1483 1485 1486 1496 1504 1512 1509 1516
1407 1403 1415 1408 1401 1408 1422 1399 1405 1406 1408 1411 1427 1406 1396 1401 1402 1400 1404 1407 1410 1413 1416 1423 1429 1435 1440 1445 1448 1451 1454 1459 1462 1464 1467 1470 1475 1482 1485 1488 1494 1512 1505 1509
1403 1404 1413 1400 1407 1432 1389 1381 1383 1391 1396 1396 1395 1392 1392 1388 1390 1395 1399 1401 1403 1407 1414 1421 1429 1434 1440 1444 1448 1450 1452 1454 1456 1457 1460 1464 1467 1473 1479 1484 1492 1500 1503 1505
1404 1406 1410 1411 1418 1396 1385 1384 1387 1388 1398 1393 1390 1389 1389 1385 1392 1397 1400 1401 1406 1410 1415 1423 1430 1436 1440 1444 1446 1447 1449 1450 1452 1453 1455 1457 1459 1466 1470 1473 1480 1492 1499 1500
1402 1408 1409 1414 1408 1413 1389 1386 1384 1384 1403 1392 1392 1388 1388 1386 1402 1405 1400 1401 1405 1411 1418 1424 1430 1431 1443 1443 1443 1444 1447 1447 1447 1448 1451 1453 1457 1462 1465 1470 1476 1482 1488 1494
1420 1406 1408 1410 1405 1397 1390 1387 1385 1395 1406 1394 1392 1386 1383 1388 1392 1401 1404 1403 1407 1411 1418 1424 1432 1436 1440 1440 1440 1442 1443 1441 1440 1444 1450 1454 1454 1459 1464 1467 1471 1476 1482 1489
1407 1421 1416 1412 1405 1401 1391 1383 1386 1387 1392 1394 1396 1391 1391 1401 1402 1404 1408 1407 1411 1415 1419 1425 1430 1435 1437 1436 1437 1437 1437 1440 1432 1439 1446 1450 1453 1456 1460 1463 1468 1475 1481 1487
1407 1406 1412 1412 1412 1405 1397 1394 1392 1390 1384 1389 1393 1398 1402 1403 1407 1409 1409 1412 1414 1416 1422 1424 1427 1429 1428 1432 1434 1429 1435 1432 1436 1439 1443 1449 1454 1454 1458 1462 1468 1471 1477 1481
1388 1388 1400 1406 1408 1409 1402 1398 1397 1391 1389 1394 1395 1392 1401 1405 1406 1410 1410 1413 1415 1417 1418 1421 1420 1425 1427 1426 1427 1426 1429 1426 1432 1436 1444 1449 1454 1455 1459 1462 1463 1465 1467 1471
1394 1393 1393 1408 1409 1407 1404 1406 1405 1400 1393 1394 1395 1402 1401 1404 1411 1413 1415 1416 1415 1416 1417 1420 1421 1425 1421 1421 1421 1423 1423 1427 1430 1434 1440 1444 1448 1450 1453 1455 1457 1459 1461 1468
1402 1399 1393 1400 1394 1392 1400 1416 1408 1403 1402 1405 1408 1409 1409 1412 1418 1419 1416 1416 1417 1417 1419 1420 1422 1421 1420 1420 1422 1424 1425 1425 1428 1433 1434 1436 1445 1449 1449 1451 1453 1454 1460 1464